Time,TemperatureF,DewpointF,PressureIn,WindDirection,WindDirectionDegrees,WindSpeedMPH,WindSpeedGustMPH,Humidity,HourlyPrecipIn,Conditions,Clouds,dailyrainin,SoftwareType,DateUTC
2013-08-23 00:02:00,59.0,59.0,29.35,NNW,338,0.0,0.0,100,-99.99,,,-99.99,WSDL version 423,2013-08-23 04:02:00,
2013-08-23 00:07:00,58.9,58.9,29.35,North,8,0.0,0.0,100,-99.99,,,-99.99,WSDL version 423,2013-08-23 04:07:00,
2013-08-23 00:12:00,58.8,58.8,29.35,NNE,30,0.0,0.0,100,-99.99,,,-99.99,WSDL version 423,2013-08-23 04:12:00,
2013-08-23 00:17:00,58.7,58.7,29.35,East,90,0.0,0.0,100,-99.99,,,-99.99,WSDL version 423,2013-08-23 04:17:00,
2013-08-23 00:22:00,58.5,58.5,29.38,East,96,0.0,0.0,100,-99.99,,,-99.99,WSDL version 423,2013-08-23 04:22:00,
2013-08-23 00:27:00,58.4,58.4,29.38,East,90,0.0,0.0,100,-99.99,,,-99.99,WSDL version 423,2013-08-23 04:27:00,
2013-08-23 00:32:00,58.2,58.2,29.38,ENE,71,0.0,0.0,100,-99.99,,,-99.99,WSDL version 423,2013-08-23 04:32:00,
2013-08-23 00:37:00,58.1,58.1,29.38,East,90,0.0,0.0,100,-99.99,,,-99.99,WSDL version 423,2013-08-23 04:37:00,
2013-08-23 00:42:00,58.1,58.1,29.38,North,6,0.0,0.0,100,-99.99,,,-99.99,WSDL version 423,2013-08-23 04:42:00,
2013-08-23 00:47:00,58.0,57.9,29.38,NW,315,0.0,0.0,100,-99.99,,,-99.99,WSDL version 423,2013-08-23 04:47:00,
2013-08-23 00:52:00,57.9,57.9,29.38,NW,315,0.0,0.0,100,-99.99,,,-99.99,WSDL version 423,2013-08-23 04:52:00,
2013-08-23 00:57:00,57.8,57.8,29.38,NNW,338,0.0,0.0,100,-99.99,,,-99.99,WSDL version 423,2013-08-23 04:57:00,
2013-08-23 01:02:00,57.6,57.6,29.38,North,350,0.0,0.0,100,-99.99,,,-99.99,WSDL version 423,2013-08-23 05:02:00,
2013-08-23 01:07:00,57.5,57.5,29.38,NNW,338,0.0,0.0,100,-99.99,,,-99.99,WSDL version 423,2013-08-23 05:07:00,
2013-08-23 01:12:00,57.4,57.4,29.38,NNW,338,0.0,0.0,100,-99.99,,,-99.99,WSDL version 423,2013-08-23 05:12:00,
2013-08-23 01:17:00,57.2,57.2,29.38,NNW,338,0.0,0.0,100,-99.99,,,-99.99,WSDL version 423,2013-08-23 05:17:00,
2013-08-23 01:22:00,57.1,57.1,29.41,NNW,338,0.0,0.0,100,-99.99,,,-99.99,WSDL version 423,2013-08-23 05:22:00,
2013-08-23 01:27:00,57.0,57.0,29.41,NNW,338,0.0,0.0,100,-99.99,,,-99.99,WSDL version 423,2013-08-23 05:27:00,
2013-08-23 01:32:00,56.8,56.8,29.41,East,90,0.0,0.0,100,-99.99,,,-99.99,WSDL version 423,2013-08-23 05:32:00,
2013-08-23 01:42:00,56.8,56.8,29.38,North,360,0.0,0.0,100,-99.99,,,-99.99,WSDL version 423,2013-08-23 05:42:00,
2013-08-23 01:47:00,56.6,56.6,29.38,North,360,0.0,0.0,100,-99.99,,,-99.99,WSDL version 423,2013-08-23 05:47:00,
2013-08-23 01:52:00,56.4,56.4,29.41,NNW,338,0.0,0.0,100,-99.99,,,-99.99,WSDL version 423,2013-08-23 05:52:00,
2013-08-23 01:57:00,56.3,56.3,29.41,NNE,26,0.0,0.0,100,-99.99,,,-99.99,WSDL version 423,2013-08-23 05:57:00,
2013-08-23 02:02:00,56.3,56.3,29.41,NNW,333,0.0,0.0,100,-99.99,,,-99.99,WSDL version 423,2013-08-23 06:02:00,
2013-08-23 02:07:00,56.3,56.3,29.41,NNE,25,0.0,0.0,100,-99.99,,,-99.99,WSDL version 423,2013-08-23 06:07:00,
2013-08-23 02:12:00,56.3,56.3,29.41,NE,48,0.0,0.0,100,-99.99,,,-99.99,WSDL version 423,2013-08-23 06:12:00,
2013-08-23 02:17:00,56.4,56.4,29.41,NNW,338,0.0,0.0,100,-99.99,,,-99.99,WSDL version 423,2013-08-23 06:17:00,
2013-08-23 02:22:00,56.5,56.5,29.41,NNW,340,0.0,0.0,100,-99.99,,,-99.99,WSDL version 423,2013-08-23 06:22:00,
2013-08-23 02:27:00,56.6,56.6,29.41,NNE,14,0.0,0.0,100,-99.99,,,-99.99,WSDL version 423,2013-08-23 06:27:00,
2013-08-23 02:32:00,56.5,56.5,29.41,NNW,343,0.0,0.0,100,-99.99,,,-99.99,WSDL version 423,2013-08-23 06:32:00,
2013-08-23 02:37:00,56.5,56.5,29.41,North,360,0.0,0.0,100,-99.99,,,-99.99,WSDL version 423,2013-08-23 06:37:00,
2013-08-23 02:42:00,56.4,56.4,29.41,North,360,0.0,0.0,100,-99.99,,,-99.99,WSDL version 423,2013-08-23 06:42:00,
2013-08-23 02:47:00,56.3,56.3,29.41,East,82,0.0,0.0,100,-99.99,,,-99.99,WSDL version 423,2013-08-23 06:47:00,
2013-08-23 02:52:00,56.2,56.2,29.41,NNE,32,0.0,0.0,100,-99.99,,,-99.99,WSDL version 423,2013-08-23 06:52:00,
2013-08-23 02:57:00,56.3,56.3,29.41,NNE,25,0.0,0.0,100,-99.99,,,-99.99,WSDL version 423,2013-08-23 06:57:00,
2013-08-23 03:02:00,56.3,56.3,29.41,NE,35,0.0,0.0,100,-99.99,,,-99.99,WSDL version 423,2013-08-23 07:02:00,
2013-08-23 03:07:00,56.3,56.3,29.41,North,357,0.0,0.0,100,-99.99,,,-99.99,WSDL version 423,2013-08-23 07:07:00,
2013-08-23 03:12:00,56.1,56.1,29.41,NNE,13,0.0,0.0,100,-99.99,,,-99.99,WSDL version 423,2013-08-23 07:12:00,
2013-08-23 03:17:00,56.1,56.1,29.41,West,270,0.0,0.0,100,-99.99,,,-99.99,WSDL version 423,2013-08-23 07:17:00,
2013-08-23 03:22:00,56.0,56.0,29.41,SSE,160,0.0,0.0,100,-99.99,,,-99.99,WSDL version 423,2013-08-23 07:22:00,
2013-08-23 03:27:00,55.8,55.8,29.41,SSE,158,0.0,0.0,100,-99.99,,,-99.99,WSDL version 423,2013-08-23 07:27:00,
2013-08-23 03:32:00,55.6,55.6,29.41,SSE,165,0.0,0.0,100,-99.99,,,-99.99,WSDL version 423,2013-08-23 07:32:00,
2013-08-23 03:37:00,55.5,55.5,29.41,SSE,160,0.0,0.0,100,-99.99,,,-99.99,WSDL version 423,2013-08-23 07:37:00,
2013-08-23 03:42:00,55.5,55.5,29.41,NNE,20,0.0,0.0,100,-99.99,,,-99.99,WSDL version 423,2013-08-23 07:42:00,
2013-08-23 03:47:00,55.5,55.5,29.41,NNE,23,0.0,0.0,100,-99.99,,,-99.99,WSDL version 423,2013-08-23 07:47:00,
2013-08-23 03:52:00,55.4,55.4,29.41,NE,39,0.0,0.0,100,-99.99,,,-99.99,WSDL version 423,2013-08-23 07:52:00,
2013-08-23 03:57:00,55.3,55.3,29.41,NE,50,0.0,0.0,100,-99.99,,,-99.99,WSDL version 423,2013-08-23 07:57:00,
2013-08-23 04:02:00,55.1,55.1,29.41,North,11,0.0,0.0,100,-99.99,,,-99.99,WSDL version 423,2013-08-23 08:02:00,
2013-08-23 04:07:00,55.0,55.0,29.41,North,350,0.0,0.0,100,-99.99,,,-99.99,WSDL version 423,2013-08-23 08:07:00,
2013-08-23 04:12:00,55.0,55.0,29.41,North,5,0.0,0.0,100,-99.99,,,-99.99,WSDL version 423,2013-08-23 08:12:00,
2013-08-23 04:17:00,55.0,55.0,29.41,NNW,338,0.0,0.0,100,-99.99,,,-99.99,WSDL version 423,2013-08-23 08:17:00,
2013-08-23 04:22:00,55.0,55.0,29.41,NW,315,0.0,0.0,100,-99.99,,,-99.99,WSDL version 423,2013-08-23 08:22:00,
2013-08-23 04:27:00,54.7,54.7,29.41,NE,39,0.0,0.0,100,-99.99,,,-99.99,WSDL version 423,2013-08-23 08:27:00,
2013-08-23 04:32:00,54.7,54.7,29.41,SE,138,0.0,0.0,100,-99.99,,,-99.99,WSDL version 423,2013-08-23 08:32:00,
2013-08-23 04:37:00,54.5,54.5,29.44,ESE,107,0.0,0.0,100,-99.99,,,-99.99,WSDL version 423,2013-08-23 08:37:00,
2013-08-23 04:42:00,54.4,54.4,29.44,ESE,118,0.0,0.0,100,-99.99,,,-99.99,WSDL version 423,2013-08-23 08:42:00,
2013-08-23 04:47:00,54.3,54.3,29.44,SSE,158,0.0,0.0,100,-99.99,,,-99.99,WSDL version 423,2013-08-23 08:47:00,
2013-08-23 04:52:00,54.1,54.1,29.44,SSE,158,0.0,0.0,100,-99.99,,,-99.99,WSDL version 423,2013-08-23 08:52:00,
2013-08-23 04:57:00,53.9,53.9,29.44,WNW,300,0.0,0.0,100,-99.99,,,-99.99,WSDL version 423,2013-08-23 08:57:00,
2013-08-23 05:02:00,53.7,53.7,29.44,SE,132,0.0,0.0,100,-99.99,,,-99.99,WSDL version 423,2013-08-23 09:02:00,
2013-08-23 05:07:00,53.5,53.5,29.44,ESE,110,0.0,0.0,100,-99.99,,,-99.99,WSDL version 423,2013-08-23 09:07:00,
2013-08-23 05:12:00,53.4,53.4,29.44,SSE,158,0.0,0.0,100,-99.99,,,-99.99,WSDL version 423,2013-08-23 09:12:00,
2013-08-23 05:17:00,53.2,53.2,29.44,ESE,113,0.0,0.0,100,-99.99,,,-99.99,WSDL version 423,2013-08-23 09:17:00,
2013-08-23 05:22:00,53.1,53.1,29.44,East,96,0.0,0.0,100,-99.99,,,-99.99,WSDL version 423,2013-08-23 09:22:00,
2013-08-23 05:27:00,53.2,53.2,29.44,SE,143,0.0,0.0,100,-99.99,,,-99.99,WSDL version 423,2013-08-23 09:27:00,
2013-08-23 05:32:00,53.1,53.1,29.44,WSW,248,0.0,0.0,100,-99.99,,,-99.99,WSDL version 423,2013-08-23 09:32:00,
2013-08-23 05:37:00,53.0,53.0,29.44,WSW,248,0.0,0.0,100,-99.99,,,-99.99,WSDL version 423,2013-08-23 09:37:00,
2013-08-23 05:42:00,52.8,52.8,29.44,WSW,256,0.0,0.0,100,-99.99,,,-99.99,WSDL version 423,2013-08-23 09:42:00,
2013-08-23 05:47:00,52.6,52.6,29.44,SSE,158,0.0,0.0,100,-99.99,,,-99.99,WSDL version 423,2013-08-23 09:47:00,
2013-08-23 05:52:00,52.5,52.5,29.44,North,360,0.0,0.0,100,-99.99,,,-99.99,WSDL version 423,2013-08-23 09:52:00,
2013-08-23 05:57:00,52.5,52.5,29.44,North,8,0.0,0.0,100,-99.99,,,-99.99,WSDL version 423,2013-08-23 09:57:00,
2013-08-23 06:02:00,52.5,52.5,29.44,NNE,23,0.0,0.0,100,-99.99,,,-99.99,WSDL version 423,2013-08-23 10:02:00,
2013-08-23 06:07:00,52.5,52.5,29.44,NNE,18,0.0,0.0,100,-99.99,,,-99.99,WSDL version 423,2013-08-23 10:07:00,
2013-08-23 06:12:00,52.5,52.5,29.44,North,6,0.0,0.0,100,-99.99,,,-99.99,WSDL version 423,2013-08-23 10:12:00,
2013-08-23 06:17:00,52.6,52.6,29.44,NNW,341,0.0,0.0,100,-99.99,,,-99.99,WSDL version 423,2013-08-23 10:17:00,
2013-08-23 06:22:00,52.7,52.7,29.47,NNW,346,0.0,0.0,100,-99.99,,,-99.99,WSDL version 423,2013-08-23 10:22:00,
2013-08-23 06:27:00,52.9,52.9,29.47,NNE,25,0.0,0.0,100,-99.99,,,-99.99,WSDL version 423,2013-08-23 10:27:00,
2013-08-23 06:32:00,53.0,53.0,29.47,NNW,348,0.0,0.0,100,-99.99,,,-99.99,WSDL version 423,2013-08-23 10:32:00,
2013-08-23 06:37:00,53.0,53.0,29.47,North,354,0.0,0.0,100,-99.99,,,-99.99,WSDL version 423,2013-08-23 10:37:00,
2013-08-23 06:42:00,52.9,52.9,29.47,NNW,348,0.0,0.0,100,-99.99,,,-99.99,WSDL version 423,2013-08-23 10:42:00,
2013-08-23 06:47:00,52.9,52.9,29.47,North,8,0.0,0.0,100,-99.99,,,-99.99,WSDL version 423,2013-08-23 10:47:00,
2013-08-23 06:52:00,53.1,53.1,29.47,North,355,0.0,0.0,100,-99.99,,,-99.99,WSDL version 423,2013-08-23 10:52:00,
2013-08-23 06:57:00,53.2,53.2,29.47,North,6,0.0,0.0,100,-99.99,,,-99.99,WSDL version 423,2013-08-23 10:57:00,
2013-08-23 07:02:00,54.4,54.4,29.47,NNW,348,0.0,0.0,100,-99.99,,,-99.99,WSDL version 423,2013-08-23 11:02:00,
2013-08-23 07:07:00,56.0,56.0,29.47,North,349,0.0,0.0,100,-99.99,,,-99.99,WSDL version 423,2013-08-23 11:07:00,
2013-08-23 07:12:00,57.1,57.1,29.47,North,349,0.0,0.0,100,-99.99,,,-99.99,WSDL version 423,2013-08-23 11:12:00,
2013-08-23 07:17:00,58.2,58.2,29.47,NE,38,0.0,0.0,100,-99.99,,,-99.99,WSDL version 423,2013-08-23 11:17:00,
2013-08-23 07:22:00,58.9,58.9,29.47,North,8,0.0,0.0,100,-99.99,,,-99.99,WSDL version 423,2013-08-23 11:22:00,
2013-08-23 07:27:00,59.5,59.5,29.47,North,360,0.0,0.0,100,-99.99,,,-99.99,WSDL version 423,2013-08-23 11:27:00,
2013-08-23 07:32:00,59.9,59.9,29.47,North,356,0.0,0.0,100,-99.99,,,-99.99,WSDL version 423,2013-08-23 11:32:00,
2013-08-23 07:37:00,59.9,59.1,29.47,NW,326,2.5,4.0,93,-99.99,,,-99.99,WSDL version 423,2013-08-23 11:37:00,
2013-08-23 07:42:00,-999.0,-99.9,29.47,North,349,2.6,4.0,-999,-99.99,,,-99.99,WSDL version 423,2013-08-23 11:42:00,
2013-08-23 07:47:00,-999.0,-99.9,29.47,North,-999,-999.0,-999.0,-999,-99.99,,,-99.99,WSDL version 423,2013-08-23 11:47:00,
2013-08-23 07:52:00,58.6,55.7,29.47,North,-999,-999.0,-999.0,90,-99.99,,,-99.99,WSDL version 423,2013-08-23 11:52:00,
2013-08-23 07:57:00,-999.0,-99.9,29.47,NNE,23,2.1,3.1,-999,-99.99,,,-99.99,WSDL version 423,2013-08-23 11:57:00,
2013-08-23 08:02:00,-999.0,-99.9,29.47,North,-999,-999.0,-999.0,-999,-99.99,,,-99.99,WSDL version 423,2013-08-23 12:02:00,
2013-08-23 08:07:00,58.6,55.7,29.47,NW,315,2.5,2.5,90,-99.99,,,-99.99,WSDL version 423,2013-08-23 12:07:00,
2013-08-23 08:12:00,58.5,55.4,29.47,North,0,0.0,2.7,89,-99.99,,,-99.99,WSDL version 423,2013-08-23 12:12:00,
2013-08-23 08:17:00,-999.0,-99.9,29.47,NNW,338,2.7,2.9,-999,-99.99,,,-99.99,WSDL version 423,2013-08-23 12:17:00,
2013-08-23 08:22:00,-999.0,-99.9,29.50,North,356,2.0,2.9,-999,-99.99,,,-99.99,WSDL version 423,2013-08-23 12:22:00,
2013-08-23 08:27:00,-999.0,-99.9,29.50,NNW,343,2.2,5.4,-999,-99.99,,,-99.99,WSDL version 423,2013-08-23 12:27:00,
2013-08-23 08:32:00,61.1,54.7,29.50,NNW,347,3.0,5.4,78,-99.99,,,-99.99,WSDL version 423,2013-08-23 12:32:00,
2013-08-23 08:37:00,61.7,54.4,29.50,NE,36,1.5,4.3,77,-99.99,,,-99.99,WSDL version 423,2013-08-23 12:37:00,
2013-08-23 08:42:00,-999.0,-99.9,29.50,North,356,5.6,6.3,-999,-99.99,,,-99.99,WSDL version 423,2013-08-23 12:42:00,
2013-08-23 08:47:00,62.7,52.0,29.50,NNW,338,3.4,6.3,69,-99.99,,,-99.99,WSDL version 423,2013-08-23 12:47:00,
2013-08-23 08:52:00,-999.0,-99.9,29.50,North,349,3.2,6.0,-999,-99.99,,,-99.99,WSDL version 423,2013-08-23 12:52:00,
2013-08-23 08:57:00,63.3,51.0,29.50,North,349,3.6,5.4,63,-99.99,,,-99.99,WSDL version 423,2013-08-23 12:57:00,
2013-08-23 09:02:00,63.8,50.9,29.50,North,349,3.1,5.4,64,-99.99,,,-99.99,WSDL version 423,2013-08-23 13:02:00,
2013-08-23 09:07:00,64.6,50.4,29.50,NNE,15,3.5,4.9,60,-99.99,,,-99.99,WSDL version 423,2013-08-23 13:07:00,
2013-08-23 09:12:00,64.8,49.8,29.50,North,360,3.4,6.0,57,-99.99,,,-99.99,WSDL version 423,2013-08-23 13:12:00,
2013-08-23 09:17:00,64.8,48.9,29.50,NNW,338,3.2,6.0,57,-99.99,,,-99.99,WSDL version 423,2013-08-23 13:17:00,
2013-08-23 09:22:00,65.5,50.8,29.50,North,360,2.2,4.9,61,-99.99,,,-99.99,WSDL version 423,2013-08-23 13:22:00,
2013-08-23 09:27:00,66.3,50.3,29.50,NNW,338,4.0,6.5,55,-99.99,,,-99.99,WSDL version 423,2013-08-23 13:27:00,
2013-08-23 09:32:00,-999.0,-99.9,29.50,NE,56,3.1,6.5,-999,-99.99,,,-99.99,WSDL version 423,2013-08-23 13:32:00,
2013-08-23 09:37:00,67.0,49.8,29.50,North,11,3.0,4.9,52,-99.99,,,-99.99,WSDL version 423,2013-08-23 13:37:00,
2013-08-23 09:42:00,67.3,48.0,29.50,NW,326,3.4,6.3,50,-99.99,,,-99.99,WSDL version 423,2013-08-23 13:42:00,
2013-08-23 09:47:00,-999.0,-99.9,29.50,NNE,32,2.8,6.3,-999,-99.99,,,-99.99,WSDL version 423,2013-08-23 13:47:00,
2013-08-23 09:52:00,-999.0,-99.9,29.53,North,-999,-999.0,-999.0,-999,-99.99,,,-99.99,WSDL version 423,2013-08-23 13:52:00,
2013-08-23 09:57:00,69.0,49.3,29.53,NNE,17,2.2,4.3,48,-99.99,,,-99.99,WSDL version 423,2013-08-23 13:57:00,
2013-08-23 10:02:00,69.4,47.8,29.53,NNW,338,4.0,5.4,44,-99.99,,,-99.99,WSDL version 423,2013-08-23 14:02:00,
2013-08-23 10:07:00,68.7,46.0,29.53,North,360,4.3,6.3,44,-99.99,,,-99.99,WSDL version 423,2013-08-23 14:07:00,
2013-08-23 10:12:00,68.9,46.1,29.53,NW,324,3.3,6.3,44,-99.99,,,-99.99,WSDL version 423,2013-08-23 14:12:00,
2013-08-23 10:17:00,69.4,46.8,29.53,NE,56,5.5,7.6,43,-99.99,,,-99.99,WSDL version 423,2013-08-23 14:17:00,
2013-08-23 10:22:00,-999.0,-99.9,29.53,NNE,17,5.3,7.6,-999,-99.99,,,-99.99,WSDL version 423,2013-08-23 14:22:00,
2013-08-23 10:27:00,69.4,46.7,29.53,North,360,3.1,6.3,45,-99.99,,,-99.99,WSDL version 423,2013-08-23 14:27:00,
2013-08-23 10:32:00,-999.0,-99.9,29.53,North,8,2.2,6.3,-999,-99.99,,,-99.99,WSDL version 423,2013-08-23 14:32:00,
2013-08-23 10:37:00,68.7,45.3,29.53,North,360,2.9,4.7,43,-99.99,,,-99.99,WSDL version 423,2013-08-23 14:37:00,
2013-08-23 10:42:00,68.2,46.3,29.53,North,11,2.9,4.9,46,-99.99,,,-99.99,WSDL version 423,2013-08-23 14:42:00,
2013-08-23 10:47:00,-999.0,-99.9,29.53,North,0,0.0,4.9,-999,-99.99,,,-99.99,WSDL version 423,2013-08-23 14:47:00,
2013-08-23 10:52:00,69.9,46.4,29.53,North,0,0.0,5.8,43,-99.99,,,-99.99,WSDL version 423,2013-08-23 14:52:00,
2013-08-23 10:57:00,70.5,47.3,29.53,North,0,0.0,5.8,43,-99.99,,,-99.99,WSDL version 423,2013-08-23 14:57:00,
2013-08-23 11:02:00,-999.0,-99.9,29.53,NNW,342,3.0,4.3,-999,-99.99,,,-99.99,WSDL version 423,2013-08-23 15:02:00,
2013-08-23 11:07:00,70.3,46.7,29.53,NW,326,3.4,6.3,43,-99.99,,,-99.99,WSDL version 423,2013-08-23 15:07:00,
2013-08-23 11:12:00,71.1,46.2,29.53,North,0,0.0,6.3,42,-99.99,,,-99.99,WSDL version 423,2013-08-23 15:12:00,
2013-08-23 11:17:00,-999.0,-99.9,29.53,NW,326,3.1,6.0,-999,-99.99,,,-99.99,WSDL version 423,2013-08-23 15:17:00,
2013-08-23 11:22:00,72.5,47.3,29.53,North,349,3.6,5.8,38,-99.99,,,-99.99,WSDL version 423,2013-08-23 15:22:00,
2013-08-23 11:27:00,73.0,46.9,29.53,ENE,60,3.0,5.6,39,-99.99,,,-99.99,WSDL version 423,2013-08-23 15:27:00,
2013-08-23 11:32:00,73.0,45.9,29.53,WNW,293,3.0,6.0,39,-99.99,,,-99.99,WSDL version 423,2013-08-23 15:32:00,
2013-08-23 11:37:00,-999.0,-99.9,29.53,NNE,15,2.6,6.0,-999,-99.99,,,-99.99,WSDL version 423,2013-08-23 15:37:00,
2013-08-23 11:42:00,73.9,45.3,29.53,NNW,329,3.2,5.6,36,-99.99,,,-99.99,WSDL version 423,2013-08-23 15:42:00,
2013-08-23 11:47:00,72.9,45.1,29.53,WNW,293,3.4,5.6,37,-99.99,,,-99.99,WSDL version 423,2013-08-23 15:47:00,
2013-08-23 11:52:00,73.5,48.4,29.53,WSW,239,1.3,5.4,42,-99.99,,,-99.99,WSDL version 423,2013-08-23 15:52:00,
2013-08-23 11:57:00,74.7,49.0,29.53,WNW,300,2.5,5.8,40,-99.99,,,-99.99,WSDL version 423,2013-08-23 15:57:00,
2013-08-23 12:02:00,-999.0,-99.9,29.53,West,278,1.4,5.8,-999,-99.99,,,-99.99,WSDL version 423,2013-08-23 16:02:00,
2013-08-23 12:07:00,-999.0,-99.9,29.53,SSW,195,1.1,2.7,-999,-99.99,,,-99.99,WSDL version 423,2013-08-23 16:07:00,
2013-08-23 12:12:00,78.3,46.8,29.53,WSW,240,1.9,4.3,33,-99.99,,,-99.99,WSDL version 423,2013-08-23 16:12:00,
2013-08-23 12:17:00,-999.0,-99.9,29.53,SSW,208,1.3,4.3,-999,-99.99,,,-99.99,WSDL version 423,2013-08-23 16:17:00,
2013-08-23 12:22:00,-999.0,-99.9,29.53,North,0,0.0,4.0,-999,-99.99,,,-99.99,WSDL version 423,2013-08-23 16:22:00,
2013-08-23 12:27:00,-999.0,-99.9,29.53,North,351,2.2,4.3,-999,-99.99,,,-99.99,WSDL version 423,2013-08-23 16:27:00,
2013-08-23 12:32:00,-999.0,-99.9,29.53,SW,225,2.2,4.9,-999,-99.99,,,-99.99,WSDL version 423,2013-08-23 16:32:00,
2013-08-23 12:37:00,-999.0,-99.9,29.53,West,270,2.2,4.9,-999,-99.99,,,-99.99,WSDL version 423,2013-08-23 16:37:00,
2013-08-23 12:42:00,77.2,44.2,29.53,SW,234,2.6,6.0,31,-99.99,,,-99.99,WSDL version 423,2013-08-23 16:42:00,
2013-08-23 12:47:00,-999.0,-99.9,29.53,WSW,248,1.1,6.0,-999,-99.99,,,-99.99,WSDL version 423,2013-08-23 16:47:00,
2013-08-23 12:52:00,-999.0,-99.9,29.53,West,270,1.1,3.8,-999,-99.99,,,-99.99,WSDL version 423,2013-08-23 16:52:00,
2013-08-23 12:57:00,-999.0,-99.9,29.53,North,11,4.0,4.7,-999,-99.99,,,-99.99,WSDL version 423,2013-08-23 16:57:00,
2013-08-23 13:02:00,76.0,43.2,29.53,NNE,23,1.4,4.7,31,-99.99,,,-99.99,WSDL version 423,2013-08-23 17:02:00,
2013-08-23 13:07:00,-999.0,-99.9,29.53,SSW,208,2.2,4.3,-999,-99.99,,,-99.99,WSDL version 423,2013-08-23 17:07:00,
2013-08-23 13:12:00,-999.0,-99.9,29.53,NW,308,1.9,3.6,-999,-99.99,,,-99.99,WSDL version 423,2013-08-23 17:12:00,
2013-08-23 13:17:00,-999.0,-99.9,29.53,NNW,345,3.4,3.8,-999,-99.99,,,-99.99,WSDL version 423,2013-08-23 17:17:00,
2013-08-23 13:22:00,77.5,42.8,29.53,NNE,23,3.4,6.0,30,-99.99,,,-99.99,WSDL version 423,2013-08-23 17:22:00,
2013-08-23 13:27:00,75.6,43.0,29.53,NW,315,4.0,6.0,32,-99.99,,,-99.99,WSDL version 423,2013-08-23 17:27:00,
2013-08-23 13:32:00,74.5,43.3,29.53,NW,315,2.3,4.3,33,-99.99,,,-99.99,WSDL version 423,2013-08-23 17:32:00,
2013-08-23 13:37:00,76.1,45.3,29.53,East,90,0.0,3.4,34,-99.99,,,-99.99,WSDL version 423,2013-08-23 17:37:00,
2013-08-23 13:42:00,-999.0,-99.9,29.53,West,259,0.8,4.3,-999,-99.99,,,-99.99,WSDL version 423,2013-08-23 17:42:00,
2013-08-23 13:47:00,78.4,47.8,29.53,WNW,293,1.1,4.3,34,-99.99,,,-99.99,WSDL version 423,2013-08-23 17:47:00,
2013-08-23 13:52:00,-999.0,-99.9,29.53,NE,45,1.3,5.4,-999,-99.99,,,-99.99,WSDL version 423,2013-08-23 17:52:00,
2013-08-23 13:57:00,-999.0,-99.9,29.53,North,0,0.0,5.4,-999,-99.99,,,-99.99,WSDL version 423,2013-08-23 17:57:00,
2013-08-23 14:02:00,-999.0,-99.9,29.53,NNE,15,3.3,6.3,-999,-99.99,,,-99.99,WSDL version 423,2013-08-23 18:02:00,
2013-08-23 14:07:00,78.4,45.3,29.53,NW,315,2.2,6.3,31,-99.99,,,-99.99,WSDL version 423,2013-08-23 18:07:00,
2013-08-23 14:12:00,-999.0,-99.9,29.53,North,11,3.2,4.9,-999,-99.99,,,-99.99,WSDL version 423,2013-08-23 18:12:00,
2013-08-23 14:17:00,76.9,44.0,29.53,SW,225,0.9,4.9,32,-99.99,,,-99.99,WSDL version 423,2013-08-23 18:17:00,
2013-08-23 14:22:00,76.3,44.7,29.53,ENE,71,1.9,3.8,32,-99.99,,,-99.99,WSDL version 423,2013-08-23 18:22:00,
2013-08-23 14:27:00,-999.0,-99.9,29.53,NW,323,2.2,4.9,-999,-99.99,,,-99.99,WSDL version 423,2013-08-23 18:27:00,
2013-08-23 14:32:00,-999.0,-99.9,29.53,North,353,2.5,4.9,-999,-99.99,,,-99.99,WSDL version 423,2013-08-23 18:32:00,
2013-08-23 14:37:00,-999.0,-99.9,29.53,West,270,0.9,4.3,-999,-99.99,,,-99.99,WSDL version 423,2013-08-23 18:37:00,
2013-08-23 14:42:00,-999.0,-99.9,29.53,North,360,1.6,3.6,-999,-99.99,,,-99.99,WSDL version 423,2013-08-23 18:42:00,
2013-08-23 14:47:00,-999.0,-99.9,29.53,North,-999,-999.0,-999.0,-999,-99.99,,,-99.99,WSDL version 423,2013-08-23 18:47:00,
2013-08-23 14:52:00,76.3,44.3,29.53,NNE,15,1.3,3.8,32,-99.99,,,-99.99,WSDL version 423,2013-08-23 18:52:00,
2013-08-23 14:57:00,-999.0,-99.9,29.53,WSW,248,2.0,3.8,-999,-99.99,,,-99.99,WSDL version 423,2013-08-23 18:57:00,
2013-08-23 15:02:00,-999.0,-99.9,29.53,North,-999,-999.0,-999.0,-999,-99.99,,,-99.99,WSDL version 423,2013-08-23 19:02:00,
2013-08-23 15:07:00,76.3,44.3,29.53,SW,225,1.3,1.6,32,-99.99,,,-99.99,WSDL version 423,2013-08-23 19:07:00,
2013-08-23 15:12:00,76.2,44.6,29.53,North,-999,-999.0,-999.0,33,-99.99,,,-99.99,WSDL version 423,2013-08-23 19:12:00,
2013-08-23 15:17:00,-999.0,-99.9,29.53,NNE,23,2.5,2.5,-999,-99.99,,,-99.99,WSDL version 423,2013-08-23 19:17:00,
2013-08-23 15:22:00,-999.0,-99.9,29.53,SW,225,1.0,2.5,-999,-99.99,,,-99.99,WSDL version 423,2013-08-23 19:22:00,
2013-08-23 15:27:00,75.0,44.8,29.53,North,-999,-999.0,-999.0,34,-99.99,,,-99.99,WSDL version 423,2013-08-23 19:27:00,
2013-08-23 15:32:00,74.8,44.3,29.53,North,-999,-999.0,-999.0,33,-99.99,,,-99.99,WSDL version 423,2013-08-23 19:32:00,
2013-08-23 15:37:00,-999.0,-99.9,29.53,North,-999,-999.0,-999.0,-999,-99.99,,,-99.99,WSDL version 423,2013-08-23 19:37:00,
2013-08-23 15:42:00,-999.0,-99.9,29.53,North,-999,-999.0,-999.0,-999,-99.99,,,-99.99,WSDL version 423,2013-08-23 19:42:00,
2013-08-23 15:47:00,-999.0,-99.9,29.53,SW,225,1.5,2.0,-999,-99.99,,,-99.99,WSDL version 423,2013-08-23 19:47:00,
2013-08-23 15:52:00,-999.0,-99.9,29.53,SW,225,2.5,2.5,-999,-99.99,,,-99.99,WSDL version 423,2013-08-23 19:52:00,
2013-08-23 15:57:00,-999.0,-99.9,29.53,North,360,2.0,2.7,-999,-99.99,,,-99.99,WSDL version 423,2013-08-23 19:57:00,
2013-08-23 16:02:00,-999.0,-99.9,29.53,North,-999,-999.0,-999.0,-999,-99.99,,,-99.99,WSDL version 423,2013-08-23 20:02:00,
2013-08-23 16:07:00,-999.0,-99.9,29.53,West,270,1.1,2.2,-999,-99.99,,,-99.99,WSDL version 423,2013-08-23 20:07:00,
2013-08-23 16:12:00,72.4,44.2,29.53,North,0,0.0,2.2,36,-99.99,,,-99.99,WSDL version 423,2013-08-23 20:12:00,
2013-08-23 16:17:00,-999.0,-99.9,29.53,North,-999,-999.0,-999.0,-999,-99.99,,,-99.99,WSDL version 423,2013-08-23 20:17:00,
2013-08-23 16:22:00,-999.0,-99.9,29.56,North,-999,-999.0,-999.0,-999,-99.99,,,-99.99,WSDL version 423,2013-08-23 20:22:00,
2013-08-23 16:27:00,71.4,43.8,29.56,North,-999,-999.0,-999.0,37,-99.99,,,-99.99,WSDL version 423,2013-08-23 20:27:00,
2013-08-23 16:32:00,-999.0,-99.9,29.56,NW,315,1.3,4.3,-999,-99.99,,,-99.99,WSDL version 423,2013-08-23 20:32:00,
2013-08-23 16:37:00,-999.0,-99.9,29.53,North,-999,-999.0,-999.0,-999,-99.99,,,-99.99,WSDL version 423,2013-08-23 20:37:00,
2013-08-23 16:42:00,70.5,41.9,29.53,NW,315,4.0,4.0,35,-99.99,,,-99.99,WSDL version 423,2013-08-23 20:42:00,
2013-08-23 16:47:00,-999.0,-99.9,29.53,North,-999,-999.0,-999.0,-999,-99.99,,,-99.99,WSDL version 423,2013-08-23 20:47:00,
2013-08-23 16:52:00,-999.0,-99.9,29.56,North,-999,-999.0,-999.0,-999,-99.99,,,-99.99,WSDL version 423,2013-08-23 20:52:00,
2013-08-23 16:57:00,-999.0,-99.9,29.56,North,-999,-999.0,-999.0,-999,-99.99,,,-99.99,WSDL version 423,2013-08-23 20:57:00,
2013-08-23 17:02:00,70.3,44.5,29.56,NNW,331,1.5,2.2,39,-99.99,,,-99.99,WSDL version 423,2013-08-23 21:02:00,
2013-08-23 17:07:00,70.2,43.7,29.56,NW,321,1.3,2.9,39,-99.99,,,-99.99,WSDL version 423,2013-08-23 21:07:00,
2013-08-23 17:12:00,70.1,43.3,29.56,NW,310,0.8,3.8,39,-99.99,,,-99.99,WSDL version 423,2013-08-23 21:12:00,
2013-08-23 17:17:00,70.1,44.6,29.56,WSW,238,1.0,3.8,40,-99.99,,,-99.99,WSDL version 423,2013-08-23 21:17:00,
2013-08-23 17:22:00,70.0,44.6,29.56,SSW,208,1.5,2.7,40,-99.99,,,-99.99,WSDL version 423,2013-08-23 21:22:00,
2013-08-23 17:27:00,70.0,44.4,29.56,West,267,1.1,3.1,41,-99.99,,,-99.99,WSDL version 423,2013-08-23 21:27:00,
2013-08-23 17:32:00,69.8,44.0,29.56,WSW,245,0.1,3.1,40,-99.99,,,-99.99,WSDL version 423,2013-08-23 21:32:00,
2013-08-23 17:37:00,69.6,44.0,29.56,NNW,330,1.5,3.8,39,-99.99,,,-99.99,WSDL version 423,2013-08-23 21:37:00,
2013-08-23 17:42:00,69.6,44.8,29.56,SW,236,1.5,3.8,41,-99.99,,,-99.99,WSDL version 423,2013-08-23 21:42:00,
2013-08-23 17:47:00,69.5,44.9,29.56,West,275,0.0,2.9,42,-99.99,,,-99.99,WSDL version 423,2013-08-23 21:47:00,
2013-08-23 17:52:00,69.3,44.8,29.56,SW,233,0.4,4.3,42,-99.99,,,-99.99,WSDL version 423,2013-08-23 21:52:00,
2013-08-23 17:57:00,69.3,45.2,29.56,SW,228,0.8,4.3,42,-99.99,,,-99.99,WSDL version 423,2013-08-23 21:57:00,
2013-08-23 18:02:00,69.2,45.1,29.56,WSW,248,0.3,2.9,41,-99.99,,,-99.99,WSDL version 423,2013-08-23 22:02:00,
2013-08-23 18:07:00,69.1,45.5,29.56,West,260,0.0,2.9,43,-99.99,,,-99.99,WSDL version 423,2013-08-23 22:07:00,
2013-08-23 18:12:00,69.0,45.0,29.56,WSW,250,0.6,3.8,42,-99.99,,,-99.99,WSDL version 423,2013-08-23 22:12:00,
2013-08-23 18:17:00,68.8,45.2,29.56,SW,219,0.6,3.8,43,-99.99,,,-99.99,WSDL version 423,2013-08-23 22:17:00,
2013-08-23 18:22:00,68.8,45.4,29.56,West,270,0.0,2.5,43,-99.99,,,-99.99,WSDL version 423,2013-08-23 22:22:00,
2013-08-23 18:27:00,68.6,45.8,29.56,SSW,211,0.1,2.9,44,-99.99,,,-99.99,WSDL version 423,2013-08-23 22:27:00,
2013-08-23 18:32:00,68.5,45.7,29.56,West,270,0.1,2.9,44,-99.99,,,-99.99,WSDL version 423,2013-08-23 22:32:00,
2013-08-23 18:37:00,68.3,45.8,29.56,West,270,0.0,2.7,45,-99.99,,,-99.99,WSDL version 423,2013-08-23 22:37:00,
2013-08-23 18:42:00,67.9,46.2,29.56,North,353,0.0,0.0,45,-99.99,,,-99.99,WSDL version 423,2013-08-23 22:42:00,
2013-08-23 18:47:00,67.7,46.1,29.56,NW,318,0.0,0.0,47,-99.99,,,-99.99,WSDL version 423,2013-08-23 22:47:00,
2013-08-23 18:52:00,67.4,46.3,29.56,NW,315,0.0,0.0,47,-99.99,,,-99.99,WSDL version 423,2013-08-23 22:52:00,
2013-08-23 18:57:00,67.2,45.9,29.56,NW,323,0.0,2.9,46,-99.99,,,-99.99,WSDL version 423,2013-08-23 22:57:00,
2013-08-23 19:02:00,67.0,45.4,29.56,NNW,338,0.0,2.9,47,-99.99,,,-99.99,WSDL version 423,2013-08-23 23:02:00,
2013-08-23 19:07:00,66.7,45.9,29.56,WNW,287,0.0,0.9,47,-99.99,,,-99.99,WSDL version 423,2013-08-23 23:07:00,
2013-08-23 19:12:00,66.5,45.9,29.56,South,188,0.0,1.3,47,-99.99,,,-99.99,WSDL version 423,2013-08-23 23:12:00,
2013-08-23 19:17:00,66.2,45.8,29.56,SSW,203,0.0,1.3,48,-99.99,,,-99.99,WSDL version 423,2013-08-23 23:17:00,
2013-08-23 19:22:00,65.9,46.3,29.59,SW,225,0.0,0.0,49,-99.99,,,-99.99,WSDL version 423,2013-08-23 23:22:00,
2013-08-23 19:27:00,65.5,45.5,29.59,SW,225,0.0,0.0,48,-99.99,,,-99.99,WSDL version 423,2013-08-23 23:27:00,
2013-08-23 19:32:00,65.0,45.7,29.59,SW,225,0.0,0.0,50,-99.99,,,-99.99,WSDL version 423,2013-08-23 23:32:00,
2013-08-23 19:37:00,64.5,46.7,29.59,SE,124,0.0,0.0,54,-99.99,,,-99.99,WSDL version 423,2013-08-23 23:37:00,
2013-08-23 19:42:00,63.8,47.5,29.59,ESE,115,0.0,0.0,56,-99.99,,,-99.99,WSDL version 423,2013-08-23 23:42:00,
2013-08-23 19:47:00,63.2,47.7,29.59,East,90,0.0,0.0,57,-99.99,,,-99.99,WSDL version 423,2013-08-23 23:47:00,
2013-08-23 19:52:00,62.8,48.3,29.59,East,90,0.0,0.0,60,-99.99,,,-99.99,WSDL version 423,2013-08-23 23:52:00,
2013-08-23 19:57:00,62.3,48.7,29.59,East,93,0.0,0.0,62,-99.99,,,-99.99,WSDL version 423,2013-08-23 23:57:00,
2013-08-23 20:02:00,61.8,48.8,29.59,NW,304,0.0,0.9,62,-99.99,,,-99.99,WSDL version 423,2013-08-24 00:02:00,
2013-08-23 20:07:00,61.2,48.7,29.59,NNE,15,0.0,1.1,65,-99.99,,,-99.99,WSDL version 423,2013-08-24 00:07:00,
2013-08-23 20:12:00,60.7,49.4,29.59,NNE,23,0.0,1.1,66,-99.99,,,-99.99,WSDL version 423,2013-08-24 00:12:00,
2013-08-23 20:17:00,60.3,49.7,29.59,NE,45,0.0,0.0,68,-99.99,,,-99.99,WSDL version 423,2013-08-24 00:17:00,
2013-08-23 20:22:00,59.9,49.7,29.59,NE,53,0.0,0.0,69,-99.99,,,-99.99,WSDL version 423,2013-08-24 00:22:00,
2013-08-23 20:27:00,59.6,49.5,29.59,West,270,0.0,0.0,70,-99.99,,,-99.99,WSDL version 423,2013-08-24 00:27:00,
2013-08-23 20:32:00,59.3,49.8,29.59,ENE,59,0.0,0.0,71,-99.99,,,-99.99,WSDL version 423,2013-08-24 00:32:00,
2013-08-23 20:37:00,58.8,49.6,29.62,WNW,298,0.6,2.0,72,-99.99,,,-99.99,WSDL version 423,2013-08-24 00:37:00,
2013-08-23 20:42:00,58.5,50.2,29.62,NNW,328,0.5,2.5,75,-99.99,,,-99.99,WSDL version 423,2013-08-24 00:42:00,
2013-08-23 20:47:00,58.0,50.0,29.62,NW,318,0.4,2.5,75,-99.99,,,-99.99,WSDL version 423,2013-08-24 00:47:00,
2013-08-23 20:52:00,57.8,50.1,29.62,NW,315,0.0,1.3,76,-99.99,,,-99.99,WSDL version 423,2013-08-24 00:52:00,
2013-08-23 20:57:00,57.5,50.2,29.62,NW,315,0.0,2.0,77,-99.99,,,-99.99,WSDL version 423,2013-08-24 00:57:00,
2013-08-23 21:02:00,57.2,50.4,29.62,NW,315,0.0,2.0,79,-99.99,,,-99.99,WSDL version 423,2013-08-24 01:02:00,
2013-08-23 21:07:00,56.9,50.5,29.62,NNW,335,0.0,1.1,79,-99.99,,,-99.99,WSDL version 423,2013-08-24 01:07:00,
2013-08-23 21:12:00,56.6,50.1,29.62,NNE,20,0.0,1.1,80,-99.99,,,-99.99,WSDL version 423,2013-08-24 01:12:00,
2013-08-23 21:17:00,56.3,50.2,29.62,NNE,16,0.0,0.0,80,-99.99,,,-99.99,WSDL version 423,2013-08-24 01:17:00,
2013-08-23 21:22:00,56.1,49.8,29.62,NNW,338,0.0,0.0,80,-99.99,,,-99.99,WSDL version 423,2013-08-24 01:22:00,
2013-08-23 21:27:00,56.0,50.3,29.62,NNW,338,0.0,0.0,81,-99.99,,,-99.99,WSDL version 423,2013-08-24 01:27:00,
2013-08-23 21:32:00,55.7,49.9,29.62,ESE,113,0.0,0.0,82,-99.99,,,-99.99,WSDL version 423,2013-08-24 01:32:00,
2013-08-23 21:37:00,55.3,50.0,29.62,NE,38,0.0,0.0,82,-99.99,,,-99.99,WSDL version 423,2013-08-24 01:37:00,
2013-08-23 21:42:00,55.0,49.5,29.62,NNW,338,0.0,0.0,82,-99.99,,,-99.99,WSDL version 423,2013-08-24 01:42:00,
2013-08-23 21:47:00,54.8,49.9,29.62,NNW,338,0.0,0.0,83,-99.99,,,-99.99,WSDL version 423,2013-08-24 01:47:00,
2013-08-23 21:52:00,54.5,49.6,29.65,North,360,0.1,1.3,83,-99.99,,,-99.99,WSDL version 423,2013-08-24 01:52:00,
2013-08-23 21:57:00,54.3,49.7,29.65,NNW,338,0.0,1.3,84,-99.99,,,-99.99,WSDL version 423,2013-08-24 01:57:00,
2013-08-23 22:02:00,54.1,50.0,29.65,North,360,0.0,0.0,87,-99.99,,,-99.99,WSDL version 423,2013-08-24 02:02:00,
2013-08-23 22:07:00,53.9,50.0,29.62,North,6,0.0,0.0,86,-99.99,,,-99.99,WSDL version 423,2013-08-24 02:07:00,
2013-08-23 22:12:00,53.7,49.8,29.62,North,10,0.4,1.3,88,-99.99,,,-99.99,WSDL version 423,2013-08-24 02:12:00,
2013-08-23 22:17:00,53.4,50.1,29.62,North,357,0.0,1.3,89,-99.99,,,-99.99,WSDL version 423,2013-08-24 02:17:00,
2013-08-23 22:22:00,53.4,50.6,29.65,NNW,338,0.0,1.3,91,-99.99,,,-99.99,WSDL version 423,2013-08-24 02:22:00,
2013-08-23 22:27:00,53.2,51.0,29.65,NE,45,0.0,0.0,92,-99.99,,,-99.99,WSDL version 423,2013-08-24 02:27:00,
2013-08-23 22:32:00,53.1,50.5,29.65,North,357,0.0,0.0,91,-99.99,,,-99.99,WSDL version 423,2013-08-24 02:32:00,
2013-08-23 22:37:00,53.0,50.6,29.65,North,8,0.0,0.0,92,-99.99,,,-99.99,WSDL version 423,2013-08-24 02:37:00,
2013-08-23 22:42:00,52.9,50.7,29.65,NNE,20,0.0,0.0,92,-99.99,,,-99.99,WSDL version 423,2013-08-24 02:42:00,
2013-08-23 22:47:00,52.7,50.7,29.65,NNE,18,0.0,0.9,93,-99.99,,,-99.99,WSDL version 423,2013-08-24 02:47:00,
2013-08-23 22:52:00,52.6,51.1,29.65,NNW,335,0.0,0.9,96,-99.99,,,-99.99,WSDL version 423,2013-08-24 02:52:00,
2013-08-23 22:57:00,52.4,51.3,29.65,North,360,0.0,0.0,97,-99.99,,,-99.99,WSDL version 423,2013-08-24 02:57:00,
2013-08-23 23:02:00,52.3,51.4,29.65,NNE,28,0.0,0.0,97,-99.99,,,-99.99,WSDL version 423,2013-08-24 03:02:00,
2013-08-23 23:07:00,52.2,51.2,29.65,North,357,0.0,0.0,97,-99.99,,,-99.99,WSDL version 423,2013-08-24 03:07:00,
2013-08-23 23:12:00,52.1,51.2,29.65,North,360,0.0,0.0,97,-99.99,,,-99.99,WSDL version 423,2013-08-24 03:12:00,
2013-08-23 23:17:00,51.9,51.0,29.65,NNW,343,0.0,0.0,97,-99.99,,,-99.99,WSDL version 423,2013-08-24 03:17:00,
2013-08-23 23:22:00,51.8,50.9,29.65,NNE,25,0.0,0.0,97,-99.99,,,-99.99,WSDL version 423,2013-08-24 03:22:00,
2013-08-23 23:27:00,51.7,51.0,29.65,ENE,68,0.0,0.0,98,-99.99,,,-99.99,WSDL version 423,2013-08-24 03:27:00,
2013-08-23 23:32:00,51.5,50.9,29.65,ENE,58,0.0,0.0,98,-99.99,,,-99.99,WSDL version 423,2013-08-24 03:32:00,
2013-08-23 23:37:00,51.3,50.3,29.65,NE,45,0.0,0.0,97,-99.99,,,-99.99,WSDL version 423,2013-08-24 03:37:00,
2013-08-23 23:42:00,51.0,50.3,29.65,NE,42,0.0,0.0,97,-99.99,,,-99.99,WSDL version 423,2013-08-24 03:42:00,
2013-08-23 23:47:00,50.9,50.0,29.65,NNE,23,0.0,0.0,97,-99.99,,,-99.99,WSDL version 423,2013-08-24 03:47:00,
2013-08-23 23:52:00,50.8,50.1,29.65,ENE,75,0.0,0.0,98,-99.99,,,-99.99,WSDL version 423,2013-08-24 03:52:00,
2013-08-23 23:57:00,50.6,49.9,29.65,NNW,338,0.0,0.0,97,-99.99,,,-99.99,WSDL version 423,2013-08-24 03:57:00,